Weather History for KMGW - April, 2013

Change the Weather History Date:

Wednesday, April 17, 2013

  Actual Average Record
Temperature  
Mean Temperature 64 °F 53 °F  
Max Temperature 70 °F 65 °F 89 °F (1969)
Min Temperature 58 °F 42 °F 22 °F (1962)
Degree Days  
Heating Degree Days 1 12  
Month to date heating degree days 171 249  
Since 1 July heating degree days 4643 4850  
Cooling Degree Days 0 0  
Month to date cooling degree days 26 0  
Year to date cooling degree days 26 2  
Growing Degree Days 14 (Base 50)    
Moisture  
Dew Point 57 °F    
Average Humidity 83    
Maximum Humidity 100    
Minimum Humidity 66    
Precipitation  
Precipitation 0.01 in 0.12 in 0.41 in (1990)
Month to date precipitation 1.17 1.99  
Year to date precipitation 8.12 11.05  
Sea Level Pressure  
Sea Level Pressure 30.19 in    
Wind  
Wind Speed 3 mph (North)    
Max Wind Speed 13 mph    
Max Gust Speed 18 mph    
Visibility 4 miles    
Events Fog    
T = Trace of Precipitation, MM = Missing Value Source: NWS Daily Summary

Daily Weather History Graph

Daily Weather History Graph

Search for Another Location

Airport or City:

Trip Planner

Search our weather history database for the weather conditions in past years. The results will help you decide how hot, cold, wet, or windy it might be!

Date:

Astronomy

Apr. 17, 2013 Rise Set
Actual Time 6:39 AM EDT 7:59 PM EDT
Civil Twilight 6:10 AM EDT 8:28 PM EDT
Nautical Twilight 5:37 AM EDT 9:01 PM EDT
Astronomical Twilight 5:02 AM EDT 9:37 PM EDT
Moon 11:51 AM EDT (4/17) 1:36 AM EDT (4/17)
Length of Visible Light 14h 17m
Length of Day
13h 20m
Waxing Crescent, 42% of the Moon is Illuminated
Apr 17
Waxing Crescent
Apr 18
First Quarter
Apr 25
Full
May 2
Last Quarter
May 9
New

Hourly Weather History & Observations

Time (EDT) Temp. Dew Point Humidity Pressure Visibility Wind Dir Wind Speed Gust Speed Precip Events Conditions
12:53 AM 60.1 °F 57.9 °F 93% 30.15 in 2.0 mi Calm Calm - N/A   Mostly Cloudy
1:11 AM 60.8 °F 57.2 °F 88% 30.17 in 1.2 mi Calm Calm - N/A   Partly Cloudy
1:14 AM 60.8 °F 57.2 °F 88% 30.17 in 0.8 mi Calm Calm - N/A   Mist
1:23 AM 60.8 °F 57.2 °F 88% 30.16 in 1.5 mi Calm Calm - N/A   Partly Cloudy
1:25 AM 60.8 °F 57.2 °F 88% 30.16 in 3.0 mi Calm Calm - N/A   Partly Cloudy
1:53 AM 60.1 °F 57.9 °F 93% 30.14 in 6.0 mi Calm Calm - N/A   Clear
2:14 AM 60.8 °F 57.2 °F 88% 30.17 in 2.5 mi Calm Calm - N/A   Clear
2:28 AM 59.0 °F 57.2 °F 94% 30.16 in 1.0 mi Calm Calm - 0.01 in   Mist
2:30 AM 59.0 °F 57.2 °F 94% 30.16 in 0.8 mi Calm Calm - 0.01 in   Partly Cloudy
2:50 AM 59.0 °F 57.2 °F 94% 30.16 in 0.2 mi Calm Calm - 0.01 in Fog Fog
2:51 AM 59.0 °F 57.0 °F 93% 30.14 in 0.2 mi Calm Calm - 0.01 in Fog Fog
3:16 AM 59.0 °F 57.2 °F 94% 30.16 in 0.2 mi Calm Calm - N/A Fog Fog
3:53 AM 57.9 °F 57.0 °F 97% 30.16 in 0.2 mi Calm Calm - N/A Fog Fog
4:53 AM 57.9 °F 57.0 °F 97% 30.17 in 0.2 mi Calm Calm - N/A Fog Fog
5:53 AM 57.9 °F 57.0 °F 97% 30.19 in 0.2 mi Calm Calm - N/A Fog Fog
6:28 AM 57.2 °F 57.2 °F 100% 30.19 in 0.2 mi Calm Calm - N/A Fog Fog
6:53 AM 59.0 °F 57.9 °F 96% 30.19 in 0.2 mi Calm Calm - N/A Fog Fog
7:09 AM 57.2 °F 57.2 °F 100% 30.22 in 0.2 mi Calm Calm - N/A Fog Fog
7:20 AM 57.2 °F 57.2 °F 100% 30.23 in 0.2 mi Calm Calm - N/A Fog Fog
7:53 AM 59.0 °F 57.9 °F 96% 30.21 in 0.2 mi Calm Calm - N/A Fog Fog
8:24 AM 59.0 °F 57.2 °F 94% 30.23 in 0.8 mi NNE 3.5 mph - N/A   Mist
8:53 AM 59.0 °F 57.9 °F 96% 30.22 in 0.8 mi Calm Calm - N/A   Overcast
9:05 AM 59.0 °F 57.2 °F 94% 30.24 in 1.2 mi North 3.5 mph - N/A   Overcast
9:19 AM 59.0 °F 57.2 °F 94% 30.24 in 3.0 mi North 3.5 mph - N/A   Overcast
10:08 AM 59.0 °F 57.2 °F 94% 30.25 in 2.0 mi North 6.9 mph - N/A   Overcast
10:33 AM 57.2 °F 57.2 °F 100% 30.24 in 1.8 mi North 5.8 mph - N/A   Overcast
10:53 AM 59.0 °F 57.0 °F 93% 30.24 in 2.0 mi North 4.6 mph - N/A   Overcast
11:17 AM 57.2 °F 57.2 °F 100% 30.25 in 3.0 mi NNE 4.6 mph - N/A   Overcast
11:53 AM 59.0 °F 57.0 °F 93% 30.25 in 3.0 mi North 4.6 mph - N/A   Overcast
12:53 PM 60.1 °F 57.0 °F 90% 30.24 in 7.0 mi NE 4.6 mph - N/A   Overcast
1:19 PM 62.6 °F 57.2 °F 82% 30.24 in 10.0 mi Variable 4.6 mph - N/A   Overcast
1:53 PM 62.1 °F 57.0 °F 84% 30.22 in 8.0 mi West 3.5 mph - N/A   Overcast
2:02 PM 64.4 °F 57.2 °F 77% 30.23 in 7.0 mi Calm Calm - N/A   Overcast
2:11 PM 64.4 °F 57.2 °F 77% 30.23 in 7.0 mi Calm Calm - N/A   Overcast
2:21 PM 64.4 °F 57.2 °F 77% 30.22 in 7.0 mi Calm Calm - N/A   Overcast
2:35 PM 64.4 °F 57.2 °F 77% 30.22 in 10.0 mi Calm Calm - N/A   Overcast
2:45 PM 64.4 °F 57.2 °F 77% 30.21 in 10.0 mi Calm Calm - N/A   Overcast
2:53 PM 64.9 °F 57.9 °F 78% 30.19 in 10.0 mi Calm Calm - N/A   Mostly Cloudy
3:53 PM 68.0 °F 57.9 °F 70% 30.19 in 10.0 mi WNW 5.8 mph - N/A   Scattered Clouds
4:53 PM 69.1 °F 57.9 °F 68% 30.17 in 10.0 mi Calm Calm - N/A   Overcast
5:53 PM 70.0 °F 57.9 °F 65% 30.16 in 10.0 mi NNW 3.5 mph - N/A   Partly Cloudy
6:53 PM 68.0 °F 57.9 °F 70% 30.15 in 10.0 mi North 4.6 mph - N/A   Clear
7:53 PM 64.9 °F 57.0 °F 75% 30.14 in 10.0 mi North 4.6 mph - N/A   Clear
8:53 PM 63.0 °F 55.9 °F 78% 30.15 in 10.0 mi NNE 4.6 mph - N/A   Clear
9:53 PM 63.0 °F 55.9 °F 78% 30.14 in 10.0 mi Calm Calm - N/A   Clear
10:53 PM 64.0 °F 55.9 °F 75% 30.13 in 10.0 mi Variable 5.8 mph - N/A   Scattered Clouds
11:53 PM 64.9 °F 55.9 °F 73% 30.10 in 10.0 mi SE 4.6 mph - N/A   Clear